Location: Ingoldesthorpe
(52.8667°N, 0.5167°E)
Time: 20:51:32
(UTC+00:00)

Meteor 2-2 Rocket - Pass Details

Date: 19 May 2025
Orbit: 852 x 927 km, 81.3° (Epoch: 21 June)

Event Time Altitude Azimuth Distance (km) Brightness Sun altitude
Exits shadow 20:57:30 -1° 180° (S) 3,579 7.0 -7.7°
Rises 20:57:40 0° 180° (S) 3,510 7.0 -7.7°
Reaches altitude 10° 21:00:07 10° 178° (S) 2,584 6.3 -8.0°
Maximum altitude 21:05:58 66° 98° (E) 1,003 4.4 -8.5°
Drops below altitude 10° 21:11:55 10° 18° (NNE) 2,638 7.3 -9.1°
Sets 21:14:26 0° 15° (NNE) 3,589 8.0 -9.3°
